Location: Kernascl�den
(48.0062°N, 3.3198°W)
Time: 22:56:07
(UTC+00:00)

Cosmos 2278 Rocket - Pass Details

Date: 21 January 2021
Orbit: 840 x 847 km, 71.0° (Epoch: 04 March)

Event Time Altitude Azimuth Distance (km) Brightness Sun altitude
Rises 19:45:42 0° 189° (S) 3,387 5.4 -27.9°
Reaches altitude 10° 19:48:11 10° 184° (S) 2,457 4.6 -28.4°
Enters shadow 19:49:30 17° 180° (S) 1,986 4.1 -28.6°
